Stündliche Wetter Abadzekhskaya

Heute, 27 Februar, Samstag

Zeit Temperatur Niederschläge Wind Luftdruck Luftfeuchtigkeit
00:00 +2°C° 0 mm 2 m/S 717 mmHg 90%
01:00 +2°C° 0 mm 2 m/S 716 mmHg 89%
02:00 +2°C° 0 mm 2 m/S 716 mmHg 89%
03:00 +1°C° 0 mm 2 m/S 716 mmHg 90%
04:00 +1°C° 0 mm 2 m/S 715 mmHg 89%
05:00 +1°C° 0 mm 2 m/S 715 mmHg 87%
06:00 0°C° 0 mm 3 m/S 714 mmHg 86%
07:00 +1°C° 0 mm 3 m/S 714 mmHg 86%
08:00 +3°C° 0 mm 2 m/S 714 mmHg 87%
09:00 +4°C° 0 mm 2 m/S 714 mmHg 89%
10:00 +4°C° 0 mm 3 m/S 714 mmHg 88%
11:00 +5°C° 0 mm 3 m/S 714 mmHg 87%
12:00 +8°C° 0 mm 3 m/S 714 mmHg 87%
13:00 +8°C° 0 mm 3 m/S 714 mmHg 85%
14:00 +8°C° 0 mm 3 m/S 714 mmHg 84%
15:00 +8°C° 0 mm 3 m/S 713 mmHg 82%
16:00 +7°C° 0 mm 3 m/S 713 mmHg 84%
17:00 +5°C° 0 mm 2 m/S 712 mmHg 86%
18:00 +4°C° 0 mm 2 m/S 712 mmHg 88%
19:00 +3°C° 0 mm 2 m/S 712 mmHg 87%
20:00 +3°C° 0 mm 2 m/S 712 mmHg 86%
21:00 +2°C° 0 mm 2 m/S 712 mmHg 85%
22:00 +2°C° 0 mm 2 m/S 712 mmHg 84%
23:00 +2°C° 0 mm 2 m/S 711 mmHg 84%

Morgen, 28 Februar, Sonntag

Zeit Temperatur Niederschläge Wind Luftdruck Luftfeuchtigkeit
00:00 +2°C° 0 mm 2 m/S 711 mmHg 83%
01:00 +3°C° 0 mm 1 m/S 711 mmHg 85%
02:00 +3°C° 0 mm 1 m/S 711 mmHg 87%
03:00 +3°C° 0 mm 1 m/S 711 mmHg 89%
04:00 +2°C° 0.1 mm 1 m/S 711 mmHg 90%
05:00 +2°C° 0.1 mm 1 m/S 711 mmHg 91%
06:00 +2°C° 0.1 mm 1 m/S 711 mmHg 92%
07:00 +2°C° 0.4 mm 1 m/S 711 mmHg 93%
08:00 +2°C° 0.4 mm 2 m/S 711 mmHg 95%
09:00 +2°C° 0.4 mm 2 m/S 711 mmHg 97%
10:00 +1°C° 1 mm 2 m/S 711 mmHg 97%
11:00 +1°C° 1 mm 2 m/S 711 mmHg 97%
12:00 +2°C° 1 mm 1 m/S 711 mmHg 98%
13:00 +2°C° 1.3 mm 1 m/S 711 mmHg 98%
14:00 +2°C° 1.3 mm 1 m/S 711 mmHg 98%
15:00 +1°C° 1.3 mm 1 m/S 711 mmHg 98%
16:00 +1°C° 0.8 mm 1 m/S 711 mmHg 98%
17:00 +1°C° 0.8 mm 1 m/S 711 mmHg 98%
18:00 +1°C° 0.8 mm 1 m/S 712 mmHg 98%
19:00 +1°C° 0.4 mm 1 m/S 712 mmHg 98%
20:00 +1°C° 0.4 mm 1 m/S 712 mmHg 98%
21:00 +1°C° 0.4 mm 1 m/S 713 mmHg 98%
22:00 0°C° 0.7 mm 1 m/S 713 mmHg 98%
23:00 0°C° 0.7 mm 1 m/S 713 mmHg 98%

übermorgen, 1 März, Montag

Zeit Temperatur Niederschläge Wind Luftdruck Luftfeuchtigkeit
00:00 0°C° 0.7 mm 1 m/S 713 mmHg 98%
01:00 0°C° 0.1 mm 1 m/S 714 mmHg 97%
02:00 0°C° 0.1 mm 1 m/S 714 mmHg 97%
03:00 -1°C° 0.1 mm 1 m/S 714 mmHg 96%
04:00 -1°C° 0 mm 1 m/S 714 mmHg 95%
05:00 -1°C° 0 mm 1 m/S 715 mmHg 94%
06:00 -1°C° 0 mm 1 m/S 715 mmHg 93%
07:00 -1°C° 0 mm 1 m/S 715 mmHg 90%
08:00 0°C° 0 mm 1 m/S 716 mmHg 88%
09:00 +1°C° 0 mm 1 m/S 716 mmHg 86%
10:00 +1°C° 0 mm 1 m/S 716 mmHg 85%
11:00 +2°C° 0 mm 1 m/S 717 mmHg 83%
12:00 +3°C° 0 mm 1 m/S 717 mmHg 82%
13:00 +3°C° 0.1 mm 1 m/S 717 mmHg 83%
14:00 +3°C° 0.1 mm 1 m/S 717 mmHg 84%
15:00 +3°C° 0.1 mm 1 m/S 717 mmHg 84%
16:00 +3°C° 0.2 mm 1 m/S 717 mmHg 87%
17:00 +2°C° 0.2 mm 1 m/S 717 mmHg 90%
18:00 +1°C° 0.2 mm 1 m/S 717 mmHg 93%
19:00 +1°C° 0.3 mm 1 m/S 717 mmHg 94%
20:00 +1°C° 0.3 mm 1 m/S 718 mmHg 95%
21:00 0°C° 0.3 mm 1 m/S 718 mmHg 95%
22:00 0°C° 0.1 mm 1 m/S 718 mmHg 95%
23:00 0°C° 0.1 mm 1 m/S 718 mmHg 94%

2 März, Dienstag

Zeit Temperatur Niederschläge Wind Luftdruck Luftfeuchtigkeit
00:00 -1°C° 0.1 mm 1 m/S 718 mmHg 93%
01:00 -1°C° 0 mm 1 m/S 718 mmHg 92%
02:00 -1°C° 0 mm 1 m/S 718 mmHg 91%
03:00 -2°C° 0 mm 1 m/S 718 mmHg 90%
04:00 -2°C° 0 mm 1 m/S 718 mmHg 89%
05:00 -2°C° 0 mm 1 m/S 718 mmHg 88%
06:00 -2°C° 0 mm 1 m/S 718 mmHg 87%
07:00 -1°C° 0 mm 1 m/S 718 mmHg 86%
08:00 0°C° 0 mm 1 m/S 718 mmHg 84%
09:00 +1°C° 0 mm 1 m/S 718 mmHg 82%
10:00 +2°C° 0 mm 1 m/S 718 mmHg 83%
11:00 +3°C° 0 mm 1 m/S 718 mmHg 84%
12:00 +3°C° 0 mm 2 m/S 718 mmHg 85%
13:00 +3°C° 0 mm 2 m/S 718 mmHg 86%
14:00 +2°C° 0 mm 2 m/S 717 mmHg 88%
15:00 +2°C° 0 mm 2 m/S 717 mmHg 90%
16:00 +2°C° 0 mm 2 m/S 717 mmHg 90%
17:00 +1°C° 0 mm 3 m/S 717 mmHg 90%
18:00 0°C° 0 mm 3 m/S 717 mmHg 90%
19:00 0°C° 0 mm 3 m/S 717 mmHg 90%
20:00 -1°C° 0 mm 3 m/S 717 mmHg 89%
21:00 -1°C° 0 mm 3 m/S 717 mmHg 88%
22:00 -2°C° 0 mm 3 m/S 717 mmHg 87%
23:00 -3°C° 0 mm 4 m/S 716 mmHg 86%

3 März, Mittwoch

Zeit Temperatur Niederschläge Wind Luftdruck Luftfeuchtigkeit
00:00 -3°C° 0 mm 4 m/S 716 mmHg 85%
01:00 -3°C° 0 mm 4 m/S 716 mmHg 84%
02:00 -3°C° 0 mm 4 m/S 716 mmHg 84%
03:00 -3°C° 0 mm 4 m/S 716 mmHg 83%
04:00 -3°C° 0 mm 4 m/S 715 mmHg 83%
05:00 -3°C° 0 mm 4 m/S 715 mmHg 83%
06:00 -3°C° 0 mm 4 m/S 715 mmHg 82%
07:00 -2°C° 0 mm 4 m/S 715 mmHg 79%
08:00 -2°C° 0 mm 4 m/S 716 mmHg 77%
09:00 -1°C° 0 mm 4 m/S 716 mmHg 74%
10:00 0°C° 0.1 mm 5 m/S 716 mmHg 73%
11:00 +1°C° 0.1 mm 5 m/S 716 mmHg 72%
12:00 +2°C° 0.1 mm 5 m/S 716 mmHg 72%
13:00 +2°C° 0.1 mm 5 m/S 715 mmHg 75%
14:00 +1°C° 0.1 mm 6 m/S 715 mmHg 77%
15:00 +1°C° 0.1 mm 6 m/S 715 mmHg 80%
16:00 0°C° 0.2 mm 5 m/S 715 mmHg 85%
17:00 0°C° 0.2 mm 5 m/S 715 mmHg 89%
18:00 -1°C° 0.2 mm 5 m/S 715 mmHg 94%
19:00 -2°C° 0.5 mm 4 m/S 716 mmHg 95%
20:00 -1°C° 0.5 mm 3 m/S 716 mmHg 95%
21:00 -1°C° 0.5 mm 3 m/S 717 mmHg 96%
22:00 -2°C° 0.4 mm 2 m/S 717 mmHg 96%
23:00 -2°C° 0.4 mm 2 m/S 717 mmHg 96%

4 März, Donnerstag

Zeit Temperatur Niederschläge Wind Luftdruck Luftfeuchtigkeit
00:00 0°C° 0.4 mm 1 m/S 717 mmHg 96%
01:00 -1°C° 0.1 mm 1 m/S 717 mmHg 95%
02:00 -1°C° 0.1 mm 1 m/S 717 mmHg 95%
03:00 -3°C° 0.1 mm 0 m/S 717 mmHg 95%
04:00 -3°C° 0 mm 0 m/S 718 mmHg 93%
05:00 -2°C° 0 mm 1 m/S 718 mmHg 92%
06:00 -3°C° 0 mm 1 m/S 718 mmHg 91%
07:00 -3°C° 0 mm 0 m/S 718 mmHg 87%
08:00 -1°C° 0 mm 0 m/S 718 mmHg 82%
09:00 0°C° 0 mm 0 m/S 719 mmHg 77%
10:00 +1°C° 0 mm 0 m/S 719 mmHg 72%
11:00 +2°C° 0 mm 0 m/S 719 mmHg 67%
12:00 +5°C° 0 mm 1 m/S 719 mmHg 62%
13:00 +5°C° 0 mm 1 m/S 719 mmHg 61%
14:00 +5°C° 0 mm 1 m/S 719 mmHg 60%
15:00 +5°C° 0 mm 1 m/S 718 mmHg 59%
16:00 +4°C° 0 mm 1 m/S 718 mmHg 63%
17:00 +2°C° 0 mm 0 m/S 718 mmHg 68%
18:00 +1°C° 0 mm 0 m/S 718 mmHg 72%
19:00 +1°C° 0 mm 1 m/S 718 mmHg 74%
20:00 0°C° 0 mm 1 m/S 718 mmHg 76%
21:00 0°C° 0 mm 1 m/S 718 mmHg 78%
22:00 -1°C° 0 mm 1 m/S 718 mmHg 79%
23:00 -1°C° 0 mm 1 m/S 718 mmHg 80%
Mehr zeigen

Wir brauchen deine Erlaubnis

Meteoprog und unser Service Anbieter werden persönliche Daten aufbewahren, so wie Cookies, Geräte Bezeichnung oder ähnliche Technologien von deinem Gerät und Prozess, so wie Persönliche Daten Inhalte und Werbungen, genauso wie social Media und den Verkehr zu analysieren.

  • Aufbewahrung und/oder Zugang zu deiner Geräte Informationen.

    Cookies, Geräte Bezeichnung oder andere Informationen, können aufbewahrt oder Zugang zu deinem Gerät erhalten, für den Grund, der oben angegeben wird.

  • Personalisierte Werbung und Inhalte, Messungen, Einblick in das Publikum und Produkt Entwicklung.

    Werbungen und Inhalte können personalisiert werden, basierend auf ein Profil. Mehr Daten können besser personalisierte Werbungen und Inhalte hinzufügen. Werbung und Inhalte können gezeigt und gemessen werden. Einblicke über das Publikum, welche die Werbung gesehen haben und den Inhalt, können abgeleitet werden. So wie Daten können genutzt werden, um es zu verbessern oder die Benutzer Erfahrung zu verbessern das System und die Software.

Wenn du “Ich stimme zu” klickst, erlaubst du uns, die Cookies zu benutzen die Geräte Bezeichnung, den Web oder ähnliche Technologien zu benutzen. Deine Settings, können in deinem Gerät bei deinem Browser geändert werden.

Für den bestimmten Zweck, berechtigten Interessen beruhen darauf, mehr als auf den Inhalt. Du kannst mehr darüber in unseren Privaten und Cookie Politik lesen.